Regional Weather Roundup
Issued by NWS

Home | Current Version | Previous Version | Graphics & Text | Print | Product List | Glossary On
Versions: 1 2 3 4 5 6 7 8 9 10 11 12 13 14 15 16 17 18 19 20 21 22 23 24 25 26 27 28 29 30 31 32 33 34 35 36 37 38 39 40 41 42 43 44 45 46 47 48 49 50
000
ASUS43 KLSX 221659
RWRMO

WEATHER SUMMARY FOR MISSOURI
NATIONAL WEATHER SERVICE SPRINGFIELD MO
1100 AM CST MON DEC 22 2014

NOTE: "FAIR" INDICATES FEW OR NO CLOUDS BELOW 12,000 FEET WITH NO
       SIGNIFICANT WEATHER AND/OR OBSTRUCTIONS TO VISIBILITY.
       CURRENT SKY AND/OR WEATHER CONDITIONS ARE NOT AVAILABLE FOR
       CHILLICOTHE AND FARMINGTON.

MOZ001>031-035>038-043-044-053-054-221800-
...NORTHERN AND WESTERN MISSOURI...

CITY           SKY/WX    TMP DP  RH WIND       PRES   REMARKS
KANSAS CTY INT LGT RAIN  43  43 100 S12       29.54F FOG
KANSAS C DTWN  CLOUDY    45  42  89 S10       29.55F
LEE`S SUMMIT   CLOUDY    43  41  93 S10       29.56F
ST JOSEPH      LGT RAIN  43  42  97 S9        29.55F FOG
CHILLICOTHE      N/A     42  39  89 SE8       29.60F
KIRKSVILLE     LGT RAIN  39  39 100 SE10      29.62F FOG

$$
MOZ066>068-077>081-088>096-101>105-221800-
...SOUTHWEST MISSOURI...

CITY           SKY/WX    TMP DP  RH WIND       PRES   REMARKS
SPRINGFIELD    RAIN      45  43  93 SE13      29.59F FOG
JOPLIN         CLOUDY    47  46  97 S10       29.58F FOG

$$
MOZ032>034-039>042-045>050-055>058-069>072-221800-
...CENTRAL MISSOURI...

CITY           SKY/WX    TMP DP  RH WIND       PRES   REMARKS
COLUMBIA       CLOUDY    45  43  93 SE12      29.62F
JEFFERSON CITY CLOUDY    44  42  93 E6        29.64F
ROLLA          LGT RAIN  45  43  93 S9        29.63F
SEDALIA        LGT RAIN  46  42  86 SE12      29.60F
WARRENSBURG    DRIZZLE   45  41  87 SE7       29.57F
OSAGE BEACH    CLOUDY    46  43  87 S9        29.62F

$$
MOZ051-052-059>065-221800-
...EAST CENTRAL MISSOURI...

CITY           SKY/WX    TMP DP  RH WIND       PRES   REMARKS
ST LOUIS INTL  LGT RAIN  45  42  89 SE13      29.70F FOG
SPIRIT OF STL  CLOUDY    44  42  93 VRB5      29.68F
ST CHARLES     LGT RAIN  43  42  97 S7        29.69F FOG

$$
MOZ072>076-082>087-097>100-106>115-221800-
...SOUTH CENTRAL AND SOUTHEAST MISSOURI...

CITY           SKY/WX    TMP DP  RH WIND       PRES   REMARKS
CAPE GIRARDEAU RAIN      48  47  96 SE17      29.74F FOG
FARMINGTON     CLOUDY    45  45 100 SE12      29.70F
POPLAR BLUFF   CLOUDY    49  46  90 S15       29.71F FOG
WEST PLAINS    CLOUDY    46  44  93 S10       29.66F FOG

$$



USA.gov is the U.S. government's official web portal to all federal, state and local government web resources and services.